Weather History for Harbor Springs, MI

Change the Weather History Date:

Monday, October 21, 2013

  Actual Average (KPLN) Record (KPLN)
Temperature  
Mean Temperature 42 °F -  
Max Temperature 50 °F 52 °F 78 °F (1953)
Min Temperature 34 °F 35 °F 21 °F (2005)
Degree Days  
Heating Degree Days 23    
Moisture  
Dew Point 40 °F    
Average Humidity 89    
Maximum Humidity 96    
Minimum Humidity 79    
Precipitation  
Precipitation 0.00 in - - ()
Sea Level Pressure  
Sea Level Pressure 29.68 in    
Wind  
Wind Speed 10 mph (WSW)    
Max Wind Speed 22 mph    
Max Gust Speed 31 mph    
Visibility 7 miles    
Events Rain , Snow    
Averages and records for this station are not official NWS values.
T = Trace of Precipitation, MM = Missing Value Source: NWS Daily Summary

Daily Weather History Graph

Daily Weather History Graph

Search for Another Location

Airport:

Trip Planner

Search our weather history database for the weather conditions in past years. The results will help you decide how hot, cold, wet, or windy it might be!

Date:

Astronomy

Oct. 21, 2013 Rise Set
Actual Time 8:04 AM EDT 6:43 PM EDT
Civil Twilight 7:34 AM EDT 7:13 PM EDT
Nautical Twilight 6:59 AM EDT 7:48 PM EDT
Astronomical Twilight 6:25 AM EDT 8:22 PM EDT
Moon 8:28 PM EDT (10/21) 10:45 AM EDT (10/21)
Length of Visible Light 11h 39m
Length of Day
10h 39m
Waning Gibbous, 93% of the Moon is Illuminated
Oct 21
Waning Gibbous
Oct 26
Last Quarter
Nov 3
New
Nov 10
First Quarter
Nov 17
Full

Hourly Weather History & Observations

Time (EDT) Temp. Windchill Dew Point Humidity Pressure Visibility Wind Dir Wind Speed Gust Speed Precip Events Conditions
12:14 AM 42.3 °F 36.8 °F 41.0 °F 95% 29.68 in 7.0 mi ENE 9.2 mph - N/A Rain Light Rain
12:34 AM 42.4 °F 38.1 °F 41.2 °F 95% 29.66 in 7.0 mi ENE 6.9 mph - N/A Rain Light Rain
12:55 AM 42.3 °F 38.6 °F 41.0 °F 95% 29.65 in 7.0 mi ENE 5.8 mph - N/A Rain Rain
1:14 AM 42.6 °F 38.4 °F 41.4 °F 95% 29.64 in 7.0 mi NE 6.9 mph - N/A   Drizzle
1:34 AM 42.6 °F 39.0 °F 41.5 °F 96% 29.64 in 10.0 mi NE 5.8 mph - N/A Rain Rain
1:55 AM 43.0 °F - 41.9 °F 96% 29.63 in 7.0 mi Calm Calm - N/A   Drizzle
2:14 AM 43.5 °F 41.9 °F 42.3 °F 95% 29.63 in 7.0 mi ESE 3.5 mph - N/A   Drizzle
2:34 AM 46.2 °F 43.3 °F 45.0 °F 95% 29.63 in 10.0 mi South 5.8 mph - N/A   Overcast
2:55 AM 50.0 °F - 48.6 °F 95% 29.62 in 10.0 mi SSW 9.2 mph - N/A   Overcast
3:14 AM 50.0 °F - 48.2 °F 94% 29.62 in 10.0 mi SSW 12.7 mph 18.4 mph N/A   Overcast
3:34 AM 50.0 °F - 47.7 °F 92% 29.62 in 10.0 mi SW 13.8 mph 20.7 mph N/A   Overcast
3:54 AM 50.0 °F - 47.3 °F 90% 29.62 in 10.0 mi SSW 13.8 mph 19.6 mph N/A   Overcast
4:14 AM 50.0 °F - 46.4 °F 87% 29.61 in 10.0 mi SW 11.5 mph 18.4 mph N/A   Overcast
4:35 AM 50.0 °F - 46.6 °F 88% 29.61 in 10.0 mi SW 8.1 mph 16.1 mph N/A   Overcast
4:54 AM 50.0 °F - 46.9 °F 89% 29.61 in 10.0 mi SSW 9.2 mph - N/A   Overcast
5:14 AM 50.0 °F - 47.5 °F 91% 29.61 in 10.0 mi South 10.4 mph - N/A   Light Drizzle
5:35 AM 50.0 °F - 47.8 °F 92% 29.61 in 5.0 mi SSW 9.2 mph - N/A Rain Heavy Rain
5:54 AM 50.0 °F - 48.2 °F 94% 29.61 in 4.0 mi SSW 6.9 mph - N/A Rain Heavy Rain
6:14 AM 50.0 °F - 48.6 °F 95% 29.61 in 7.0 mi SSW 11.5 mph 18.4 mph N/A   Drizzle
6:35 AM 50.0 °F - 48.2 °F 94% 29.61 in 5.0 mi WSW 12.7 mph 19.6 mph N/A Rain Rain
6:54 AM 50.0 °F - 47.8 °F 92% 29.62 in 4.0 mi West 13.8 mph 24.2 mph N/A Rain Light Rain
7:14 AM 50.0 °F - 47.7 °F 92% 29.62 in 7.0 mi West 13.8 mph 19.6 mph N/A   Heavy Drizzle
7:35 AM 48.0 °F - 45.9 °F 92% 29.63 in 7.0 mi West 11.5 mph 23.0 mph N/A Rain Light Rain
7:54 AM 47.7 °F - 45.1 °F 91% 29.63 in 10.0 mi West 13.8 mph 24.2 mph N/A Rain Light Rain
8:14 AM 47.7 °F - 44.4 °F 89% 29.64 in 7.0 mi WSW 12.7 mph 20.7 mph N/A Rain Rain
8:35 AM 47.7 °F - 43.7 °F 86% 29.65 in 10.0 mi West 16.1 mph 25.3 mph N/A Rain Light Rain
8:55 AM 47.5 °F - 42.8 °F 84% 29.66 in 10.0 mi West 15.0 mph 24.2 mph N/A   Overcast
9:14 AM 50.0 °F - 44.1 °F 80% 29.67 in 10.0 mi West 12.7 mph 26.5 mph N/A   Overcast
9:35 AM 47.3 °F - 42.8 °F 84% 29.67 in 7.0 mi West 11.5 mph 23.0 mph N/A Rain Light Rain
9:54 AM 43.7 °F 37.3 °F 40.5 °F 88% 29.69 in 2.5 mi West 12.7 mph 23.0 mph N/A Rain Heavy Rain
10:14 AM 43.0 °F 37.7 °F 40.6 °F 91% 29.69 in 10.0 mi WSW 9.2 mph 17.3 mph N/A Rain Light Rain
10:35 AM 42.8 °F 36.6 °F 39.9 °F 90% 29.69 in 7.0 mi West 11.5 mph 17.3 mph N/A Rain Rain
10:54 AM 44.2 °F 38.0 °F 40.1 °F 85% 29.69 in 10.0 mi WSW 12.7 mph 20.7 mph N/A Rain Light Rain
11:15 AM 43.7 °F 36.9 °F 39.9 °F 87% 29.70 in 7.0 mi WSW 13.8 mph 21.9 mph N/A Rain Light Rain
11:34 AM 43.5 °F 36.7 °F 40.1 °F 88% 29.71 in 10.0 mi WSW 13.8 mph 24.2 mph N/A Rain Rain
11:55 AM 42.6 °F 36.8 °F 39.4 °F 88% 29.71 in 3.0 mi West 10.4 mph 23.0 mph N/A Rain Rain
12:15 PM 42.6 °F 36.3 °F 39.6 °F 89% 29.71 in 5.0 mi SW 11.5 mph 21.9 mph N/A Rain Rain
12:34 PM 43.5 °F 40.1 °F 39.7 °F 87% 29.71 in 2.5 mi West 5.8 mph 20.7 mph N/A Rain Heavy Rain
12:55 PM 43.9 °F 37.5 °F 41.0 °F 90% 29.71 in 10.0 mi West 12.7 mph 25.3 mph N/A Rain Light Rain
1:15 PM 43.0 °F 36.8 °F 40.3 °F 90% 29.71 in 2.5 mi SW 11.5 mph 20.7 mph N/A Rain Rain
1:34 PM 43.9 °F 38.3 °F 39.2 °F 84% 29.71 in 7.0 mi West 10.4 mph 18.4 mph N/A Rain Rain
1:55 PM 42.6 °F 36.8 °F 39.2 °F 88% 29.71 in 3.0 mi West 10.4 mph 23.0 mph N/A Rain Light Rain
2:15 PM 42.3 °F 36.3 °F 39.2 °F 89% 29.71 in 2.5 mi WSW 10.4 mph 28.8 mph N/A Rain Rain
2:34 PM 43.9 °F 37.9 °F 40.3 °F 87% 29.70 in 10.0 mi West 11.5 mph 18.4 mph N/A   Mostly Cloudy
2:55 PM 43.7 °F 37.3 °F 40.1 °F 87% 29.69 in 10.0 mi WSW 12.7 mph 20.7 mph N/A   Mostly Cloudy
3:14 PM 43.0 °F 37.2 °F 38.1 °F 83% 29.70 in 7.0 mi SW 10.4 mph 28.8 mph N/A Rain Light Rain
3:34 PM 41.4 °F 35.7 °F 37.4 °F 86% 29.70 in 2.5 mi WSW 9.2 mph 26.5 mph N/A Rain Light Rain
3:55 PM 41.0 °F 33.9 °F 38.3 °F 90% 29.71 in 3.0 mi SW 12.7 mph 21.9 mph N/A Rain Light Rain
4:14 PM 42.3 °F 34.8 °F 39.2 °F 89% 29.70 in 5.0 mi WSW 15.0 mph 26.5 mph N/A Rain Heavy Rain
4:34 PM 41.5 °F 34.2 °F 38.8 °F 90% 29.71 in 5.0 mi West 13.8 mph 21.9 mph N/A Rain Light Rain
4:55 PM 42.6 °F 33.5 °F 37.4 °F 82% 29.71 in 10.0 mi WSW 21.9 mph 29.9 mph N/A   Overcast
5:14 PM 41.2 °F 35.0 °F 37.4 °F 86% 29.70 in 10.0 mi West 10.4 mph 21.9 mph N/A   Overcast
5:34 PM 41.2 °F 34.5 °F 36.5 °F 83% 29.70 in 7.0 mi SW 11.5 mph 20.7 mph N/A Rain Light Rain
5:55 PM 40.5 °F 32.1 °F 36.3 °F 85% 29.71 in 3.0 mi West 16.1 mph 28.8 mph N/A   Unknown
6:14 PM 39.6 °F 33.5 °F 36.5 °F 89% 29.71 in 7.0 mi West 9.2 mph - N/A   Light Drizzle
6:34 PM 41.9 °F 32.6 °F 37.0 °F 83% 29.71 in 10.0 mi SW 21.9 mph 29.9 mph N/A Rain Rain
6:55 PM 41.4 °F 34.0 °F 35.4 °F 79% 29.71 in 10.0 mi West 13.8 mph 25.3 mph N/A Rain Rain
7:14 PM 40.5 °F 32.8 °F 35.2 °F 82% 29.72 in 7.0 mi West 13.8 mph 21.9 mph N/A Rain Light Rain
7:34 PM 39.7 °F 31.5 °F 35.2 °F 84% 29.74 in 7.0 mi WSW 15.0 mph 31.1 mph N/A Rain Light Rain
7:55 PM 37.9 °F 29.6 °F 34.3 °F 87% 29.74 in 4.0 mi West 13.8 mph 24.2 mph N/A Rain Light Rain
8:14 PM 39.6 °F 30.6 °F 36.0 °F 87% 29.73 in 5.0 mi SW 17.3 mph 28.8 mph N/A   Overcast
8:34 PM 39.4 °F 31.4 °F 36.3 °F 89% 29.73 in 10.0 mi SSW 13.8 mph 24.2 mph N/A Rain Light Rain
8:55 PM 39.9 °F 32.9 °F 35.2 °F 83% 29.73 in 10.0 mi WSW 11.5 mph 21.9 mph N/A   Overcast
9:14 PM 39.4 °F 32.7 °F 33.8 °F 80% 29.74 in 7.0 mi West 10.4 mph 24.2 mph N/A Snow Light Snow
9:34 PM 37.6 °F 28.8 °F 33.6 °F 86% 29.73 in 4.0 mi SW 15.0 mph 29.9 mph N/A Snow Light Snow
9:55 PM 37.0 °F 27.0 °F 34.0 °F 89% 29.73 in 4.0 mi SW 18.4 mph 25.3 mph N/A Snow Light Snow
10:14 PM 37.0 °F 27.4 °F 34.0 °F 89% 29.73 in 5.0 mi SW 17.3 mph 25.3 mph N/A Snow Light Snow
10:35 PM 36.5 °F 29.2 °F 33.3 °F 88% 29.73 in 2.5 mi West 10.4 mph 23.0 mph N/A Snow Light Snow
10:54 PM 35.2 °F 25.0 °F 32.4 °F 89% 29.73 in 7.0 mi West 17.3 mph 24.2 mph N/A Snow Light Snow
11:14 PM 35.8 °F 30.1 °F 32.7 °F 89% 29.72 in 7.0 mi WSW 6.9 mph 18.4 mph N/A Snow Light Snow
11:35 PM 34.7 °F 28.8 °F 32.9 °F 93% 29.72 in 2.5 mi West 6.9 mph - N/A Snow Light Snow
11:54 PM 35.8 °F 27.8 °F 32.4 °F 87% 29.71 in 10.0 mi WNW 11.5 mph 18.4 mph N/A   Overcast